DateTime,Index
2004090806,0.0
2004090812,0.0
2004090818,1225.0
2004090900,1225.0
2004090906,1225.0
2004090912,1225.0
2004090918,1225.0
2004091000,1600.0
2004091006,1225.0
2004091012,0.0
2004091018,0.0
2004091100,0.0
2004091106,0.0
2004091112,0.0
2004091118,0.0
2004091200,1225.0
2004091206,1600.0
2004091212,2025.0
2004091218,2025.0
2004091300,2025.0
2004091306,2025.0
2004091312,2025.0
2004091318,2025.0
2004091400,2025.0
2004091406,1600.0
2004091412,1225.0
2004091418,1600.0
2004091500,2500.0
2004091506,3025.0
2004091512,4225.0
2004091518,3600.0
2004091600,3025.0
2004091606,2025.0
2004091612,0.0
2004091618,0.0
2004091700,0.0
2004091706,0.0
2004091712,0.0
2004091718,0.0
2004091800,0.0
2004091806,0.0
2004091812,0.0
2004091818,0.0
2004091900,0.0
2004091906,0.0
2004091912,0.0
2004091918,0.0
2004092000,0.0
2004092006,0.0
2004092012,0.0
2004092018,0.0
2004092100,0.0
